カタログに戻る

AEHF 4

USA 288

運用中軍事GEO
NORAD 43651·PAYLOAD·🇺🇸 United States

打ち上げ Oct 17, 2018 から Cape Canaveral Space Force Station

Loading…

TLE

最新Source: Space-Track

元期: Sep 14, 2026, 13:29 UTC

1 43651U 18079A   26257.56184095 -.00000282  00000-0  00000-0 0  9997
2 43651   1.4210 358.1377 0068653   0.8182 129.1944  1.00267305 29195

AllMySatでAEHF 4をリアルタイム追跡

Download on the App Store